Flag for Netherlands Weather past 2 weeks in Enschede, Netherlands

Now
39 °F

Overcast.


Feels Like: 37 °F
Forecast: 37 / 50 °F
Wind: 3 mph from Southwest

Location: Deelen

Current Time: Mar 6, 2015 at 5:33:06 AM

Latest Report: Mar 6, 2015 at 4:25 AM


Visibility: N/A

Pressure: 30.57 "Hg

Humidity: 87%

Dew point: 36 °F

Location of EnschedeLocation

Historic Weather in Enschede — Graph

°F

Enschede temperature yesterday

Maximum temperature yesterday: 48 °F (at 1:55 PM)
Minimum temperature yesterday: 30 °F (at 4:55 AM)
Average temperature yesterday: 38 °F

Past Weeks' High & Low Weather Summary

 TemperatureHumidityPressure
High52 °F (Mar 1, 1:25 PM)100% (Feb 19, 3:25 AM)30.63 "Hg (Feb 19, 3:25 AM)
Low28 °F (Feb 27, 10:25 PM)53% (Feb 27, 4:25 PM)29.30 "Hg (Feb 23, 4:25 AM)
Average40 °F85%29.86 "Hg
* Reported Feb 19 3:25 AM — Mar 6 3:55 AM, Enschede, Weather by CustomWeather, © 2015

Note: Actual official high and low records may vary slightly from our data, if they occured in-between our weather recording intervals... More about our weather records

Advertising

Enschede weather history for previous 24 hours

 ConditionsComfort  
Time TempWeatherWind HumidityBarometerVisibility
3:55 AM
Fri, Mar 6
39 °FOvercast.5 mph93%30.57 "HgN/A
3:25 AM39 °FOvercast.6 mph87%30.57 "HgN/A
2:55 AM39 °FOvercast.5 mph87%30.57 "HgN/A
2:25 AM39 °FOvercast.6 mph87%30.60 "HgN/A
1:55 AM39 °FOvercast.7 mph87%30.60 "HgN/A
1:25 AM39 °FOvercast.8 mph87%30.60 "HgN/A
12:55 AM39 °FOvercast.8 mph87%30.60 "HgN/A
12:25 AM39 °FOvercast.6 mph87%30.60 "HgN/A
11:55 PM
Thu, Mar 5
39 °FOvercast.6 mph87%30.60 "HgN/A
11:25 PM37 °FOvercast.5 mph87%30.60 "HgN/A
10:55 PM37 °FMostly cloudy.3 mph87%30.60 "HgN/A
10:25 PM36 °FOvercast.2 mph87%30.60 "HgN/A
9:55 PM34 °FPassing clouds.2 mph93%30.60 "HgN/A
9:25 PM37 °FPassing clouds.2 mph87%30.60 "HgN/A
8:55 PM36 °FMostly cloudy.1 mph87%30.60 "HgN/A
8:25 PM34 °FPassing clouds.2 mph87%30.60 "HgN/A
7:55 PM36 °FPassing clouds.2 mph87%30.60 "HgN/A
7:25 PM37 °FPassing clouds.3 mph81%30.60 "HgN/A
6:55 PM39 °FPassing clouds.3 mph75%30.60 "HgN/A
6:25 PM41 °FPassing clouds.5 mph70%30.60 "HgN/A
5:55 PM45 °FPassing clouds.7 mph61%30.60 "HgN/A
5:25 PM46 °FBroken clouds.7 mph57%30.60 "HgN/A
4:55 PM46 °FPassing clouds.10 mph57%30.60 "HgN/A
4:25 PM48 °FBroken clouds.10 mph54%30.60 "HgN/A
3:55 PM48 °FMore clouds than sun.8 mph62%30.60 "HgN/A
3:25 PM48 °FBroken clouds.7 mph66%30.60 "HgN/A
2:55 PM48 °FBroken clouds.10 mph66%30.60 "HgN/A
2:25 PM46 °FMore clouds than sun.10 mph71%30.60 "HgN/A
1:55 PM48 °FBroken clouds.9 mph66%30.60 "HgN/A
1:25 PM46 °FOvercast.8 mph71%30.60 "HgN/A
12:55 PM46 °FOvercast.7 mph66%30.63 "HgN/A
12:25 PM45 °FOvercast.7 mph76%30.63 "HgN/A
11:55 AM45 °FOvercast.7 mph81%30.63 "HgN/A
11:25 AM45 °FOvercast.7 mph76%30.63 "HgN/A
10:55 AM43 °FOvercast.6 mph87%30.63 "HgN/A
10:25 AM41 °FPassing clouds.6 mph93%30.63 "HgN/A
9:55 AM39 °FFog.1 mph100%30.63 "Hg5 mi
9:25 AM36 °FFog.2 mph100%30.63 "Hg2 mi
8:55 AM34 °FFog.1 mph100%30.63 "Hg2 mi
8:25 AM32 °FIce fog.1 mph100%30.60 "Hg1 mi
7:55 AM30 °FIce fog.No wind100%30.63 "Hg0 mi
7:25 AM30 °FIce fog.No wind100%30.60 "Hg0 mi
6:55 AM30 °FIce fog.No wind100%30.60 "Hg1 mi
6:25 AM32 °FIce fog.No wind100%30.60 "Hg1 mi
5:55 AM32 °FIce fog.No wind93%30.60 "Hg1 mi
5:25 AM30 °FIce fog.1 mph100%30.60 "Hg1 mi
Weather by CustomWeather, © 2015

See weather overviewHow to use our weather pages